When you browse on this site, cookies collect data to enhance your experience and personalize the content and advertising you see.
Visit our Privacy Policy to learn more. By continuing to use the site, you agree to this use of cookies and data.

Hourly Weather Serowe

Today, 22 September, Tuesday

Time Temperature Precipitation Wind Pressure Humidity
00:00 +24°C° 0 mm 8 mps 669 mmHg 33%
01:00 +21°C° 0 mm 8 mps 668 mmHg 49%
02:00 +17°C° 0 mm 9 mps 668 mmHg 63%
03:00 +16°C° 0 mm 9 mps 669 mmHg 68%
04:00 +14°C° 0 mm 10 mps 669 mmHg 73%
05:00 +14°C° 0 mm 10 mps 669 mmHg 77%
06:00 +14°C° 0 mm 10 mps 670 mmHg 75%
07:00 +16°C° 0 mm 10 mps 671 mmHg 72%
08:00 +16°C° 0 mm 10 mps 672 mmHg 69%
09:00 +17°C° 0 mm 10 mps 672 mmHg 67%
10:00 +17°C° 0 mm 10 mps 672 mmHg 64%
11:00 +18°C° 0 mm 10 mps 672 mmHg 62%
12:00 +19°C° 0 mm 9 mps 672 mmHg 56%
13:00 +22°C° 0 mm 9 mps 672 mmHg 50%
14:00 +23°C° 0 mm 9 mps 672 mmHg 44%
15:00 +22°C° 0 mm 9 mps 671 mmHg 46%
16:00 +22°C° 0 mm 9 mps 671 mmHg 48%
17:00 +21°C° 0 mm 8 mps 671 mmHg 49%
18:00 +18°C° 0 mm 8 mps 671 mmHg 55%
19:00 +17°C° 0 mm 7 mps 671 mmHg 60%
20:00 +15°C° 0 mm 6 mps 671 mmHg 65%
21:00 +15°C° 0 mm 6 mps 672 mmHg 65%
22:00 +15°C° 0 mm 6 mps 672 mmHg 65%
23:00 +15°C° 0 mm 6 mps 672 mmHg 65%

Tomorrow, 23 September, Wednesday

Time Temperature Precipitation Wind Pressure Humidity
00:00 +14°C° 0 mm 6 mps 672 mmHg 67%
01:00 +13°C° 0 mm 6 mps 671 mmHg 70%
02:00 +13°C° 0 mm 6 mps 671 mmHg 73%
03:00 +11°C° 0 mm 6 mps 670 mmHg 76%
04:00 +11°C° 0 mm 6 mps 670 mmHg 79%
05:00 +10°C° 0 mm 6 mps 670 mmHg 82%
06:00 +11°C° 0 mm 6 mps 670 mmHg 79%
07:00 +11°C° 0 mm 7 mps 671 mmHg 76%
08:00 +12°C° 0 mm 7 mps 671 mmHg 73%
09:00 +16°C° 0 mm 6 mps 671 mmHg 63%
10:00 +20°C° 0 mm 6 mps 672 mmHg 53%
11:00 +22°C° 0 mm 5 mps 672 mmHg 43%
12:00 +26°C° 0 mm 5 mps 672 mmHg 37%
13:00 +28°C° 0 mm 5 mps 671 mmHg 31%
14:00 +30°C° 0 mm 4 mps 671 mmHg 25%
15:00 +29°C° 0 mm 4 mps 670 mmHg 25%
16:00 +29°C° 0 mm 4 mps 670 mmHg 25%
17:00 +29°C° 0 mm 4 mps 670 mmHg 25%
18:00 +26°C° 0 mm 4 mps 669 mmHg 30%
19:00 +24°C° 0 mm 3 mps 669 mmHg 36%
20:00 +21°C° 0 mm 3 mps 669 mmHg 41%
21:00 +20°C° 0 mm 3 mps 669 mmHg 43%
22:00 +19°C° 0 mm 3 mps 669 mmHg 45%
23:00 +19°C° 0 mm 3 mps 669 mmHg 47%

Day after tomorrow, 24 September, Thursday

Time Temperature Precipitation Wind Pressure Humidity
00:00 +18°C° 0 mm 3 mps 669 mmHg 49%
01:00 +17°C° 0 mm 3 mps 668 mmHg 51%
02:00 +17°C° 0 mm 3 mps 668 mmHg 53%
03:00 +16°C° 0 mm 3 mps 668 mmHg 55%
04:00 +16°C° 0 mm 3 mps 668 mmHg 58%
05:00 +14°C° 0 mm 3 mps 668 mmHg 61%
06:00 +17°C° 0 mm 3 mps 668 mmHg 55%
07:00 +19°C° 0 mm 4 mps 669 mmHg 49%
08:00 +20°C° 0 mm 5 mps 670 mmHg 43%
09:00 +23°C° 0 mm 5 mps 670 mmHg 36%
10:00 +27°C° 0 mm 5 mps 670 mmHg 29%
11:00 +30°C° 0 mm 5 mps 671 mmHg 22%
12:00 +32°C° 0 mm 4 mps 670 mmHg 19%
13:00 +34°C° 0 mm 4 mps 669 mmHg 17%
14:00 +35°C° 0 mm 3 mps 668 mmHg 14%
15:00 +34°C° 0 mm 3 mps 668 mmHg 14%
16:00 +34°C° 0 mm 3 mps 667 mmHg 14%
17:00 +34°C° 0 mm 3 mps 667 mmHg 14%
18:00 +30°C° 0 mm 3 mps 667 mmHg 16%
19:00 +28°C° 0 mm 4 mps 667 mmHg 19%
20:00 +25°C° 0 mm 4 mps 667 mmHg 21%
21:00 +24°C° 0 mm 3 mps 667 mmHg 23%
22:00 +24°C° 0 mm 3 mps 667 mmHg 24%
23:00 +22°C° 0 mm 3 mps 667 mmHg 25%

25 September, Friday

Time Temperature Precipitation Wind Pressure Humidity
00:00 +21°C° 0 mm 3 mps 666 mmHg 26%
01:00 +21°C° 0 mm 3 mps 666 mmHg 27%
02:00 +20°C° 0 mm 3 mps 665 mmHg 28%
03:00 +19°C° 0 mm 2 mps 665 mmHg 30%
04:00 +19°C° 0 mm 2 mps 665 mmHg 32%
05:00 +18°C° 0 mm 2 mps 665 mmHg 34%
06:00 +21°C° 0 mm 2 mps 666 mmHg 30%
07:00 +24°C° 0 mm 3 mps 667 mmHg 26%
08:00 +27°C° 0 mm 3 mps 668 mmHg 21%
09:00 +30°C° 0 mm 2 mps 668 mmHg 18%
10:00 +34°C° 0 mm 2 mps 669 mmHg 15%
11:00 +36°C° 0 mm 1 mps 669 mmHg 12%
12:00 +37°C° 0 mm 1 mps 668 mmHg 11%
13:00 +37°C° 0 mm 1 mps 667 mmHg 11%
14:00 +39°C° 0 mm 1 mps 666 mmHg 10%
15:00 +39°C° 0 mm 2 mps 666 mmHg 10%
16:00 +38°C° 0 mm 2 mps 665 mmHg 11%
17:00 +37°C° 0 mm 3 mps 664 mmHg 11%
18:00 +35°C° 0 mm 2 mps 664 mmHg 14%
19:00 +31°C° 0 mm 2 mps 664 mmHg 16%
20:00 +28°C° 0 mm 2 mps 664 mmHg 19%
21:00 +27°C° 0 mm 2 mps 664 mmHg 20%
22:00 +26°C° 0 mm 2 mps 663 mmHg 22%
23:00 +25°C° 0 mm 2 mps 663 mmHg 23%

26 September, Saturday

Time Temperature Precipitation Wind Pressure Humidity
00:00 +24°C° 0 mm 2 mps 663 mmHg 24%
01:00 +24°C° 0 mm 2 mps 662 mmHg 24%
02:00 +23°C° 0 mm 2 mps 662 mmHg 25%
03:00 +22°C° 0 mm 3 mps 662 mmHg 25%
04:00 +22°C° 0 mm 3 mps 662 mmHg 25%
05:00 +22°C° 0 mm 3 mps 662 mmHg 25%
06:00 +25°C° 0 mm 4 mps 663 mmHg 21%
07:00 +27°C° 0 mm 4 mps 664 mmHg 17%
08:00 +29°C° 0 mm 5 mps 665 mmHg 13%
09:00 +33°C° 0 mm 5 mps 665 mmHg 12%
10:00 +35°C° 0 mm 5 mps 665 mmHg 10%
11:00 +39°C° 0 mm 6 mps 665 mmHg 9%
12:00 +40°C° 0 mm 6 mps 665 mmHg 9%
13:00 +40°C° 0 mm 6 mps 664 mmHg 9%
14:00 +41°C° 0 mm 6 mps 664 mmHg 9%
15:00 +40°C° 0 mm 6 mps 663 mmHg 9%
16:00 +40°C° 0 mm 6 mps 663 mmHg 9%
17:00 +39°C° 0 mm 7 mps 663 mmHg 9%
18:00 +35°C° 0 mm 6 mps 663 mmHg 10%
19:00 +33°C° 0 mm 6 mps 663 mmHg 11%
20:00 +29°C° 0 mm 5 mps 663 mmHg 12%
21:00 +28°C° 0 mm 5 mps 663 mmHg 10%
22:00 +26°C° 0 mm 5 mps 664 mmHg 9%
23:00 +25°C° 0 mm 4 mps 664 mmHg 7%

27 September, Sunday

Time Temperature Precipitation Wind Pressure Humidity
00:00 +23°C° 0 mm 4 mps 663 mmHg 8%
01:00 +22°C° 0 mm 4 mps 663 mmHg 9%
02:00 +21°C° 0 mm 4 mps 663 mmHg 10%
03:00 +19°C° 0 mm 3 mps 663 mmHg 10%
04:00 +18°C° 0 mm 3 mps 663 mmHg 11%
05:00 +17°C° 0 mm 2 mps 663 mmHg 11%
06:00 +18°C° 0 mm 3 mps 664 mmHg 18%
07:00 +19°C° 0 mm 4 mps 665 mmHg 24%
08:00 +21°C° 0 mm 4 mps 665 mmHg 30%
09:00 +23°C° 0 mm 5 mps 666 mmHg 30%
10:00 +26°C° 0 mm 5 mps 666 mmHg 30%
11:00 +29°C° 0 mm 5 mps 666 mmHg 30%
12:00 +30°C° 0 mm 4 mps 666 mmHg 26%
13:00 +33°C° 0 mm 4 mps 665 mmHg 22%
14:00 +34°C° 0 mm 3 mps 665 mmHg 18%
15:00 +34°C° 0 mm 3 mps 665 mmHg 18%
16:00 +34°C° 0 mm 4 mps 664 mmHg 17%
17:00 +34°C° 0 mm 4 mps 664 mmHg 16%
18:00 +30°C° 0 mm 4 mps 664 mmHg 24%
19:00 +27°C° 0 mm 4 mps 664 mmHg 32%
20:00 +23°C° 0 mm 4 mps 664 mmHg 40%
21:00 +22°C° 0 mm 4 mps 664 mmHg 46%
22:00 +21°C° 0 mm 4 mps 664 mmHg 52%
23:00 +19°C° 0 mm 5 mps 664 mmHg 58%
Show more